CST,Max TemperatureF,Mean TemperatureF,Min TemperatureF,Max Dew PointF,MeanDew PointF,Min DewpointF,Max Humidity, Mean Humidity, Min Humidity, Max Sea Level PressureIn, Mean Sea Level PressureIn, Min Sea Level PressureIn, Max VisibilityMiles, Mean VisibilityMiles, Min VisibilityMiles, Max Wind SpeedMPH, Mean Wind SpeedMPH, Max Gust SpeedMPH,PrecipitationIn, CloudCover, Events, WindDirDegrees
2014-2-1,13,-2,-16,4,-5,-23,83,72,62,29.98,29.90,29.84,10,10,5,14,1,17,0.00,6,Snow,289
2014-2-2,10,0,-10,2,-6,-15,79,67,46,30.13,30.08,29.99,10,10,4,10,6,,0.00,3,Snow,281
2014-2-3,22,0,-22,9,-6,-30,84,70,54,30.21,30.13,30.06,10,10,7,13,2,17,0.00,2,Snow,229
2014-2-4,18,2,-14,1,-6,-20,84,69,45,30.32,30.28,30.21,10,10,7,9,1,,0.09,0,,20
2014-2-5,6,2,-2,2,-4,-8,83,74,61,30.29,30.26,30.24,10,10,4,14,3,16,0.00,7,Snow,354
2014-2-6,5,-4,-13,-9,-13,-19,79,66,48,30.23,30.10,30.01,10,10,10,16,4,23,0.00,1,,254
2014-2-7,11,0,-10,-5,-11,-16,78,63,44,30.05,29.97,29.92,10,10,5,22,8,25,0.00,1,,244
2014-2-8,15,-4,-22,2,-10,-30,82,69,51,30.07,30.03,29.98,10,10,2,13,1,,0.00,2,Snow,238
2014-2-9,9,-3,-15,0,-8,-21,83,71,56,30.14,30.05,29.99,10,9,2,12,2,16,0.00,4,Snow,316
2014-2-10,5,-8,-20,-10,-16,-26,78,67,48,30.30,30.23,30.14,10,10,10,10,3,16,0.00,3,,308
2014-2-11,14,-6,-26,-6,-16,-34,71,56,33,30.32,30.21,30.02,10,10,7,12,3,21,0.00,0,,197
2014-2-12,19,11,3,8,3,-6,86,74,49,30.02,29.95,29.84,10,7,2,12,7,20,0.00,4,Snow,232
2014-2-13,19,12,6,17,10,2,95,85,79,29.83,29.53,29.37,10,4,0,13,4,20,0.00,6,Snow,183
2014-2-14,13,0,-13,5,-1,-19,81,75,67,29.89,29.71,29.49,10,9,2,18,10,23,0.00,5,Snow,335
2014-2-15,19,0,-18,11,-3,-25,88,74,50,29.92,29.87,29.80,10,7,0,8,1,,0.00,6,Snow,164
2014-2-16,18,8,-2,8,2,-7,86,74,53,30.15,30.08,29.88,10,9,2,10,3,,0.11,2,Snow,63
2014-2-17,22,15,8,18,12,3,88,82,79,30.14,29.83,29.67,10,4,0,15,7,28,0.00,7,Snow,153
2014-2-18,36,26,15,24,19,12,99,80,54,29.70,29.59,29.50,10,7,2,13,4,20,0.13,3,Snow,217
2014-2-19,39,22,6,25,14,3,100,66,31,29.80,29.71,29.58,10,8,0,18,4,25,0.01,1,Fog,250
2014-2-20,38,30,21,32,23,16,99,75,41,29.81,29.56,28.89,10,8,0,25,5,36,0.07,6,Snow,123
2014-2-21,31,20,8,30,14,2,100,83,72,29.46,29.11,28.81,7,2,0,28,13,38,0.00,8,Snow,260
2014-2-22,14,10,4,4,1,-2,76,70,61,29.83,29.67,29.46,10,7,2,22,15,28,0.00,6,Snow,263
2014-2-23,14,7,0,4,-1,-6,79,67,51,29.95,29.90,29.83,10,9,3,24,12,30,0.00,7,Snow,282
2014-2-24,13,4,-5,4,-4,-10,83,68,52,30.09,30.03,29.95,10,9,1,16,10,24,0.00,4,Snow,291
2014-2-25,4,-2,-8,-7,-11,-14,84,66,48,30.07,30.01,29.96,10,9,2,18,6,23,0.00,3,Snow,293
2014-2-26,7,-2,-12,0,-11,-21,79,65,46,30.01,29.64,29.39,10,6,1,26,10,38,0.00,4,Snow,263
2014-2-27,-2,-13,-26,-10,-20,-34,72,59,40,30.01,29.89,29.56,10,8,2,21,12,30,0.00,4,Snow,322
2014-2-28,7,-10,-27,0,-15,-35,77,63,30,30.01,29.92,29.82,10,9,1,13,3,18,0.00,5,Snow,208